Weather History for Batesville, AR

Change the Weather History Date:

Sunday, February 3, 2013

  Actual Average Record
Temperature  
Mean Temperature 48 °F -  
Max Temperature 55 °F 48 °F 33 °F (2014)
Min Temperature 41 °F 27 °F 15 °F (2014)
Degree Days  
Heating Degree Days 17    
Moisture  
Dew Point 26 °F    
Average Humidity 44    
Maximum Humidity 61    
Minimum Humidity 26    
Precipitation  
Precipitation 0.00 in - - ()
Sea Level Pressure  
Sea Level Pressure 30.18 in    
Wind  
Wind Speed 8 mph (West)    
Max Wind Speed 16 mph    
Max Gust Speed 24 mph    
Visibility 10 miles    
Events      
Averages and records for this station are not official NWS values.
T = Trace of Precipitation, MM = Missing Value Source: NWS Daily Summary

Daily Weather History Graph

Daily Weather History Graph

Search for Another Location

Airport:

Trip Planner

Search our weather history database for the weather conditions in past years. The results will help you decide how hot, cold, wet, or windy it might be!

Date:

Astronomy

Feb. 03, 2013 Rise Set
Actual Time 7:04 AM CST 5:36 PM CST
Civil Twilight 6:38 AM CST 6:03 PM CST
Nautical Twilight 6:07 AM CST 6:33 PM CST
Astronomical Twilight 5:37 AM CST 7:03 PM CST
Moon 12:32 AM CST (2/3) 11:15 AM CST (2/3)
Length of Visible Light 11h 25m
Length of Day
10h 31m
Waning Gibbous, 48% of the Moon is Illuminated
Feb 3
Waning Gibbous
Feb 10
New
Feb 17
First Quarter
Feb 25
Full
Mar 4
Last Quarter

Hourly Weather History & Observations

Time (CST) Temp. Windchill Dew Point Humidity Pressure Visibility Wind Dir Wind Speed Gust Speed Precip Events Conditions
12:15 AM 42.8 °F 38.6 °F 30.2 °F 61% 30.18 in 10.0 mi West 6.9 mph - N/A   Clear
12:35 AM 44.6 °F 40.2 °F 30.2 °F 57% 30.18 in 10.0 mi WSW 8.1 mph - N/A   Clear
12:55 AM 44.6 °F 40.2 °F 30.2 °F 57% 30.17 in 10.0 mi West 8.1 mph - N/A   Clear
1:16 AM 46.4 °F 41.9 °F 28.4 °F 50% 30.17 in 10.0 mi West 9.2 mph - N/A   Clear
1:35 AM 46.4 °F 41.9 °F 30.2 °F 53% 30.16 in 10.0 mi West 9.2 mph - N/A   Clear
1:55 AM 46.4 °F 40.7 °F 28.4 °F 50% 30.16 in 10.0 mi WSW 12.7 mph - N/A   Clear
2:15 AM 46.4 °F 39.8 °F 30.2 °F 53% 30.14 in 10.0 mi WSW 16.1 mph 20.7 mph N/A   Clear
2:55 AM 48.2 °F - 30.2 °F 50% 30.13 in 10.0 mi West 13.8 mph 20.7 mph N/A   Clear
3:15 AM 48.2 °F - 30.2 °F 50% 30.13 in 10.0 mi West 12.7 mph 18.4 mph N/A   Clear
3:55 AM 46.4 °F 44.3 °F 28.4 °F 50% 30.15 in 10.0 mi West 4.6 mph - N/A   Clear
4:15 AM 44.6 °F 40.7 °F 28.4 °F 53% 30.15 in 10.0 mi West 6.9 mph - N/A   Clear
4:35 AM 44.6 °F 41.4 °F 28.4 °F 53% 30.16 in 10.0 mi West 5.8 mph - N/A   Clear
5:15 AM 42.8 °F 41.1 °F 28.4 °F 57% 30.17 in 10.0 mi SW 3.5 mph - N/A   Clear
5:35 AM 42.8 °F 41.1 °F 28.4 °F 57% 30.17 in 10.0 mi WSW 3.5 mph - N/A   Clear
5:55 AM 41.0 °F 39.0 °F 28.4 °F 61% 30.18 in 10.0 mi WSW 3.5 mph - N/A   Clear
6:15 AM 41.0 °F 38.0 °F 28.4 °F 61% 30.18 in 10.0 mi West 4.6 mph - N/A   Clear
6:35 AM 42.8 °F 41.1 °F 28.4 °F 57% 30.18 in 10.0 mi West 3.5 mph - N/A   Clear
6:55 AM 42.8 °F 38.6 °F 30.2 °F 61% 30.19 in 10.0 mi West 6.9 mph - N/A   Clear
7:35 AM 42.8 °F 38.6 °F 28.4 °F 57% 30.20 in 10.0 mi West 6.9 mph - N/A   Clear
7:55 AM 44.6 °F 41.4 °F 30.2 °F 57% 30.21 in 10.0 mi West 5.8 mph - N/A   Clear
8:15 AM 44.6 °F 43.1 °F 28.4 °F 53% 30.21 in 10.0 mi West 3.5 mph - N/A   Clear
8:36 AM 46.4 °F 42.4 °F 30.2 °F 53% 30.22 in 10.0 mi West 8.1 mph 16.1 mph N/A   Clear
8:55 AM 46.4 °F 41.5 °F 30.2 °F 53% 30.23 in 10.0 mi WNW 10.4 mph 16.1 mph N/A   Clear
9:15 AM 46.4 °F 41.1 °F 28.4 °F 50% 30.23 in 10.0 mi NW 11.5 mph 20.7 mph N/A   Clear
9:35 AM 46.4 °F 41.1 °F 28.4 °F 50% 30.24 in 10.0 mi WNW 11.5 mph 18.4 mph N/A   Clear
9:55 AM 48.2 °F - 28.4 °F 46% 30.24 in 10.0 mi NW 11.5 mph 17.3 mph N/A   Clear
10:15 AM 48.2 °F - 28.4 °F 46% 30.24 in 10.0 mi WNW 11.5 mph 18.4 mph N/A   Clear
10:35 AM 50.0 °F - 24.8 °F 37% 30.25 in 10.0 mi WNW 10.4 mph 18.4 mph N/A   Clear
11:15 AM 51.8 °F - 24.8 °F 35% 30.24 in 10.0 mi WNW 11.5 mph 18.4 mph N/A   Clear
11:35 AM 51.8 °F - 23.0 °F 33% 30.25 in 10.0 mi NW 13.8 mph 24.2 mph N/A   Clear
11:55 AM 51.8 °F - 23.0 °F 33% 30.25 in 10.0 mi NW 10.4 mph 24.2 mph N/A   Clear
12:16 PM 51.8 °F - 23.0 °F 33% 30.23 in 10.0 mi WNW 11.5 mph 20.7 mph N/A   Clear
12:35 PM 53.6 °F - 24.8 °F 33% 30.22 in 10.0 mi NW 10.4 mph 19.6 mph N/A   Clear
12:55 PM 53.6 °F - 24.8 °F 33% 30.21 in 10.0 mi NNW 8.1 mph 18.4 mph N/A   Clear
1:35 PM 55.4 °F - 21.2 °F 26% 30.20 in 10.0 mi NNW 9.2 mph 20.7 mph N/A   Clear
1:55 PM 55.4 °F - 21.2 °F 26% 30.20 in 10.0 mi NNW 15.0 mph 20.7 mph N/A   Clear
2:35 PM 55.4 °F - 23.0 °F 29% 30.20 in 10.0 mi NW 8.1 mph 18.4 mph N/A   Clear
2:55 PM 55.4 °F - 21.2 °F 26% 30.19 in 10.0 mi NNW 6.9 mph - N/A   Clear
3:16 PM 55.4 °F - 21.2 °F 26% 30.19 in 10.0 mi NNW 5.8 mph - N/A   Clear
3:35 PM 55.4 °F - 21.2 °F 26% 30.18 in 10.0 mi WNW 5.8 mph - N/A   Clear
3:55 PM 55.4 °F - 21.2 °F 26% 30.18 in 10.0 mi Calm Calm - N/A   Clear
4:16 PM 55.4 °F - 21.2 °F 26% 30.18 in 10.0 mi NW 4.6 mph - N/A   Clear
4:35 PM 55.4 °F - 21.2 °F 26% 30.16 in 10.0 mi North 4.6 mph - N/A   Clear
4:55 PM 55.4 °F - 21.2 °F 26% 30.16 in 10.0 mi Calm Calm - N/A   Clear
5:15 PM 53.6 °F - 21.2 °F 28% 30.16 in 10.0 mi Calm Calm - N/A   Clear
5:36 PM 51.8 °F - 23.0 °F 33% 30.16 in 10.0 mi Calm Calm - N/A   Clear
5:55 PM 48.2 °F - 24.8 °F 40% 30.15 in 10.0 mi South 4.6 mph - N/A   Clear
6:15 PM 48.2 °F - 24.8 °F 40% 30.15 in 10.0 mi Calm Calm - N/A   Clear
6:55 PM 46.4 °F 44.3 °F 26.6 °F 46% 30.15 in 10.0 mi SSE 4.6 mph - N/A   Clear
7:15 PM 44.6 °F 42.2 °F 24.8 °F 46% 30.14 in 10.0 mi SE 4.6 mph - N/A   Clear
7:55 PM 46.4 °F 44.3 °F 21.2 °F 37% 30.15 in 10.0 mi SSE 4.6 mph - N/A   Clear
8:15 PM 42.8 °F 40.1 °F 24.8 °F 49% 30.15 in 10.0 mi SSE 4.6 mph - N/A   Clear
8:35 PM 42.8 °F 40.1 °F 26.6 °F 53% 30.15 in 10.0 mi SE 4.6 mph - N/A   Clear
8:56 PM 44.6 °F 42.2 °F 24.8 °F 46% 30.15 in 10.0 mi SE 4.6 mph - N/A   Clear
9:15 PM 44.6 °F 41.4 °F 24.8 °F 46% 30.14 in 10.0 mi SE 5.8 mph - N/A   Clear
9:35 PM 44.6 °F 41.4 °F 24.8 °F 46% 30.13 in 10.0 mi SE 5.8 mph - N/A   Clear
9:55 PM 44.6 °F 42.2 °F 23.0 °F 43% 30.13 in 10.0 mi SE 4.6 mph - N/A   Clear
10:15 PM 44.6 °F 43.1 °F 23.0 °F 43% 30.12 in 10.0 mi SSE 3.5 mph - N/A   Clear
10:55 PM 44.6 °F 41.4 °F 23.0 °F 43% 30.11 in 10.0 mi SSE 5.8 mph - N/A   Clear
11:15 PM 44.6 °F 41.4 °F 24.8 °F 46% 30.09 in 10.0 mi SE 5.8 mph - N/A   Clear
11:35 PM 44.6 °F 42.2 °F 24.8 °F 46% 30.09 in 10.0 mi SE 4.6 mph - N/A   Clear